TimeCST,TemperatureF,Dew PointF,Humidity,Sea Level PressureIn,VisibilityMPH,Wind Direction,Wind SpeedMPH,Gust SpeedMPH,PrecipitationIn,Events,Conditions,WindDirDegrees,DateUTC
12:54 AM,25.0,19.9,81,30.38,10.0,NW,5.8,-,N/A,,Overcast,310,2013-03-07 06:54:00
1:54 AM,25.0,19.9,81,30.40,10.0,NNW,3.5,-,N/A,,Overcast,340,2013-03-07 07:54:00
2:54 AM,26.1,19.9,78,30.40,10.0,Calm,Calm,-,N/A,,Overcast,0,2013-03-07 08:54:00
3:54 AM,25.0,19.9,81,30.40,10.0,NNW,3.5,-,N/A,,Overcast,330,2013-03-07 09:54:00
4:54 AM,25.0,19.9,81,30.40,10.0,Calm,Calm,-,N/A,,Overcast,0,2013-03-07 10:54:00
5:54 AM,25.0,19.9,81,30.41,9.0,Calm,Calm,-,N/A,,Overcast,0,2013-03-07 11:54:00
6:54 AM,26.1,21.0,81,30.42,7.0,Calm,Calm,-,N/A,,Overcast,0,2013-03-07 12:54:00
7:54 AM,26.1,21.9,84,30.44,7.0,Calm,Calm,-,N/A,,Overcast,0,2013-03-07 13:54:00
8:54 AM,28.0,21.9,78,30.44,8.0,Calm,Calm,-,N/A,,Overcast,0,2013-03-07 14:54:00
9:54 AM,30.0,21.0,69,30.45,10.0,SSE,5.8,-,N/A,,Overcast,150,2013-03-07 15:54:00
10:54 AM,30.9,21.9,69,30.44,10.0,South,5.8,-,N/A,,Overcast,190,2013-03-07 16:54:00
11:54 AM,30.9,21.9,69,30.44,10.0,SSE,5.8,-,N/A,,Overcast,160,2013-03-07 17:54:00
12:54 PM,33.1,23.0,66,30.41,10.0,SSW,6.9,-,N/A,,Mostly Cloudy,200,2013-03-07 18:54:00
1:17 PM,32.0,23.0,69,30.37,10.0,SSW,5.8,-,N/A,,Scattered Clouds,200,2013-03-07 19:17:00
1:54 PM,33.1,24.1,70,30.40,10.0,South,10.4,-,N/A,,Mostly Cloudy,190,2013-03-07 19:54:00
2:05 PM,33.1,24.1,70,30.37,10.0,SSW,8.1,-,N/A,,Scattered Clouds,210,2013-03-07 20:05:00
2:54 PM,33.1,24.1,70,30.41,10.0,SW,6.9,-,N/A,,Partly Cloudy,220,2013-03-07 20:54:00
3:54 PM,34.0,25.0,70,30.40,10.0,SSW,5.8,-,N/A,,Scattered Clouds,210,2013-03-07 21:54:00
4:03 PM,34.0,25.0,70,30.37,10.0,South,4.6,-,N/A,,Mostly Cloudy,190,2013-03-07 22:03:00
4:38 PM,34.0,23.0,64,30.37,10.0,SE,4.6,-,N/A,,Scattered Clouds,130,2013-03-07 22:38:00
4:54 PM,33.1,24.1,70,30.40,10.0,SSE,8.1,-,N/A,,Partly Cloudy,160,2013-03-07 22:54:00
5:54 PM,33.1,24.1,70,30.41,10.0,SSE,5.8,-,N/A,,Partly Cloudy,160,2013-03-07 23:54:00
6:26 PM,32.0,24.1,73,30.38,10.0,SSE,4.6,-,N/A,,Mostly Cloudy,150,2013-03-08 00:26:00
6:54 PM,32.0,24.1,73,30.42,10.0,SE,4.6,-,N/A,,Overcast,130,2013-03-08 00:54:00
7:54 PM,32.0,24.1,73,30.41,10.0,SE,6.9,-,N/A,,Mostly Cloudy,130,2013-03-08 01:54:00
8:06 PM,32.0,24.1,73,30.38,10.0,SE,5.8,-,N/A,,Scattered Clouds,140,2013-03-08 02:06:00
8:54 PM,30.0,24.1,79,30.41,10.0,East,4.6,-,N/A,,Clear,100,2013-03-08 02:54:00
9:54 PM,30.0,23.0,75,30.42,10.0,ESE,6.9,-,N/A,,Clear,110,2013-03-08 03:54:00
10:54 PM,28.9,23.0,78,30.42,10.0,East,4.6,-,N/A,,Clear,100,2013-03-08 04:54:00
11:54 PM,28.0,23.0,81,30.41,10.0,East,5.8,-,N/A,,Clear,100,2013-03-08 05:54:00